Regional Weather Roundup
Issued by NWS

Home | Current Version | Previous Version | Text Only | Print | Product List | Glossary Off
Versions: 1 2 3 4 5 6 7 8 9 10 11 12 13 14 15 16 17 18 19 20 21 22 23 24 25 26 27 28 29 30 31 32 33 34 35 36 37 38 39 40 41 42 43 44 45 46 47 48 49 50

000
ASUS43 KMPX 201401
RWRMN
WEATHER ROUNDUP FOR MINNESOTA
NATIONAL WEATHER SERVICE TWIN CITIES/CHANHASSEN MN
900 AM CDT FRI OCT 20 2017


NOTE: "FAIR" INDICATES FEW OR NO CLOUDS BELOW 12,000 FEET WITH NO
SIGNIFICANT WEATHER AND/OR OBSTRUCTIONS TO VISIBILITY. N/A MEANS
CURRENT SKY AND/OR WEATHER CONDITIONS ARE NOT AVAILABLE.

MNZ060>063-068>070-201500-
   Twin Cities Metro

CITY           SKY/WX    TMP DP  RH WIND       PRES   REMARKS
TWIN CITIES    SUNNY     57  52  83 SE7       29.90S
ST PAUL        SUNNY     56  51  84 SE8       29.91S
CRYSTAL        SUNNY     60  48  64 S13       29.87S
BLAINE         MOSUNNY   57  52  82 S9        29.88R
LAKEVILLE      SUNNY     55  50  82 S8        29.91S
EDEN PRAIRIE   SUNNY     61  50  67 S10       29.88S
SOUTH ST PAUL  SUNNY     58  49  73 S6        29.91S
LAKE ELMO      FAIR      57  50  77 S10G17    29.92S
$$
MNZ001>005-007-008-013>017-022>024-027-028-201500-
   Northwest Minnesota

CITY           SKY/WX    TMP DP  RH WIND       PRES   REMARKS
BEMIDJI        SUNNY     51  48  87 SE6       29.69F
HALLOCK        CLEAR     54  46  76 SE13      29.56F
ROSEAU         CLEAR     52  46  82 SE7       29.63S
WARROAD        CLEAR     52  46  82 SE8       29.65F
CROOKSTON      CLEAR     57  48  72 S16       29.59F
FOSSTON        SUNNY     61  46  59 S10       29.65S
DETROIT LAKES  SUNNY     55  48  76 S13       29.68F
MOORHEAD       CLEAR     57  48  72 SE17      29.63S
PARK RAPIDS    CLOUDY    53  48  83 S10       29.72F
MAHNOMEN       FAIR      60  48  64 SE10      29.64F
$$
MNZ006-009>011-018-025>026-201500-
   North Central Minnesota

CITY           SKY/WX    TMP DP  RH WIND       PRES   REMARKS
BAUDETTE       SUNNY     49  45  86 SE6       29.68F
FLAG ISLAND    CLEAR     52  46  82 SE15      29.65S
INTL FALLS     SUNNY     53  44  71 SE8       29.72F
WASKISH        SUNNY     55  48  76 SE7       29.69F
BIG FORK       SUNNY     54  46  76 S6        29.74F
LONGVILLE      SUNNY     55  50  82 SE9       29.75F
GRAND RAPIDS   SUNNY     53  47  79 S12       29.79F
CRANE LAKE     SUNNY     52  45  76 S6          N/A
ORR            SUNNY     52  41  66 SE5       29.75F
COOK           SUNNY     54  46  76 S8        29.79S
WALKER         FAIR      54  47  77 SE5       29.73S
$$
MNZ012-019>021-037-201500-
   Northeast Minnesota

CITY           SKY/WX    TMP DP  RH WIND       PRES   REMARKS
DULUTH         SUNNY     56  49  77 S13       29.84F
ELY            SUNNY     54  45  71 S9        29.81F
HIBBING        SUNNY     45  41  86 SE3       29.81S
EVELETH        SUNNY     44  44 100 CALM      29.83S
DULUTH HARBOR  SUNNY     52  48  87 CALM      29.85F
TWO HARBORS    SUNNY     52  45  76 NE3       29.84S
SILVER BAY     SUNNY     43  39  87 CALM      29.85S
GRAND MARAIS     N/A     50  45  83 CALM      29.87S
G MARAIS ARPRT SUNNY     54  37  54 S5        29.88S
$$
MNZ029>031-032-039>041-046>048-054>057-064-201500-
   West Central Minnesota

CITY           SKY/WX    TMP DP  RH WIND       PRES   REMARKS
FERGUS FALLS   SUNNY     57  48  72 S15       29.69F
WHEATON        SUNNY     55  46  71 SE16      29.69R
MORRIS         SUNNY     54  48  82 S13       29.73S
ALEXANDRIA     SUNNY     59  48  67 S16       29.77S
ELBOW LAKE     FAIR      55  49  78 SE15      29.72S
WADENA         CLOUDY    55  48  76 S8        29.73S
GLENWOOD       SUNNY     57  48  72 S14G20    29.78S
APPLETON       SUNNY     59  48  67 S9        29.73F
BENSON         SUNNY     55  48  76 S14       29.77S
ORTONVILLE     SUNNY     59  48  67 N9        29.71S
MADISON        SUNNY     63  48  59 S13       29.74S
WILLMAR        FAIR      57  50  77 S9        29.82R
$$
MNZ033>034-036-042>043-049>051-058-059-201500-
   Central Minnesota

CITY           SKY/WX    TMP DP  RH WIND       PRES   REMARKS
ST CLOUD       SUNNY     55  50  83 S12       29.83S
SAUK CENTRE    FAIR      54  48  82 S12       29.79S
PAYNESVILLE    SUNNY     57  49  75 S12G20    29.82S
AITKIN         SUNNY     54  48  82 S10       29.78S
PINE RIVER     SUNNY     52  46  82 S8        29.80S
BRAINERD       CLOUDY    56  49  77 S13       29.79S
STAPLES        MOSUNNY   54  46  76 S12       29.75S
LONG PRAIRIE   FAIR      54  46  76 SE12      29.78S
LITTLE FALLS   MOSUNNY   52  45  76 SE6       29.80S
LITCHFIELD     SUNNY     57  52  82 S6        29.84S
BUFFALO        SUNNY     59  48  68 S7        29.87R
MAPLE LAKE     SUNNY     58  51  78 S8        29.86R
HUTCHINSON     SUNNY     57  51  80 S9        29.86S
$$
MNZ037-044-045-052-053-201500-
   East Central Minnesota

CITY           SKY/WX    TMP DP  RH WIND       PRES   REMARKS
PRINCETON      SUNNY     59  52  77 S8        29.85S
MORA           SUNNY     54  46  76 S8        29.86F
CAMBRIDGE      SUNNY     57  46  67 S9        29.86S
RUSH CITY      MOSUNNY   56  49  79 S7        29.87S
MOOSE LAKE     SUNNY     55  48  76 S8        29.83F
HINCKLEY       FAIR      55  50  82 S5        29.86S
CLOQUET        SUNNY     55  46  71 S8        29.84S
MCGREGOR       SUNNY     54  48  82 S13G18    29.82S
$$
MNZ071>073-080-081-089-090-097-098-201500-
   Southwest Minnesota

CITY           SKY/WX    TMP DP  RH WIND       PRES   REMARKS
MONTEVIDEO     SUNNY     57  48  72 SW9       29.77F
GRANITE FALLS  SUNNY     59  51  73 S15       29.81S
CANBY          MOSUNNY   61  48  62 SW18G30   29.75F
MARSHALL       SUNNY     60  49  66 S24G36    29.77F
REDWOOD FALLS  SUNNY     60  48  64 S15       29.82S
OLIVIA         SUNNY     55  50  82 S9        29.82R
PIPESTONE      CLOUDY    54  46  76 S15       29.81F
WORTHINGTON    SUNNY     58  50  75 S13G21    29.87S
JACKSON        MOSUNNY   55  48  76 S14       29.90S
TRACY          SUNNY     60  51  73 S17G23    29.82S
SLAYTON        CLOUDY    58  50  73 S14G21    29.84F
$$
MNZ065>067-074>077-082>085-091>093-201500-
   South Central Minnesota

CITY           SKY/WX    TMP DP  RH WIND       PRES   REMARKS
MANKATO        SUNNY     57  50  77 S10       29.91S
NEW ULM        SUNNY     55  48  76 S13       29.87S
ST JAMES       SUNNY     55  50  82 S13       29.89S
FAIRMONT       MOSUNNY   57  51  80 S16       29.92S
GLENCOE        SUNNY     58  50  75 S8        29.86S
FARIBAULT      SUNNY     59  52  77 S10G17    29.93S
OWATONNA       SUNNY     55  50  82 S15       29.94S
WASECA         SUNNY     55  48  76 S13       29.95R
$$
MNZ078>079-086>088-094>096-201500-
   Southeast Minnesota

CITY           SKY/WX    TMP DP  RH WIND       PRES   REMARKS
ROCHESTER      SUNNY     56  51  84 S15       30.00R
RED WING       SUNNY     59  48  67 SE7       29.94S
STANTON        SUNNY     59  50  72 S10       29.91S
DODGE CENTER   SUNNY     55  48  76 S17       29.97R
WINONA         SUNNY     59  50  72 SW3       30.00S
AUSTIN         SUNNY     54  48  82 S8        29.99R
PRESTON        SUNNY     55  49  81 S13       30.02R
$$
ABBREVIATIONS USED IN REMARKS
   TC - TEMPERATURES IN CELSIUS
  WCI - WIND CHILL INDEX
   HX - HEAT INDEX
  VSB - VISIBILITY
$$




USA.gov is the U.S. government's official web portal to all federal, state and local government web resources and services.